Regional Weather Roundup
Issued by NWS

Home | Current Version | Previous Version | Graphics & Text | Print | Product List | Glossary On
Versions: 1 2 3 4 5 6 7 8 9 10 11 12 13 14 15 16 17 18 19 20 21 22 23 24 25 26 27 28 29 30 31 32 33 34 35 36 37 38 39 40 41 42 43 44 45 46 47 48 49 50
000
ASUS45 KPSR 290110
RWRAZ

ARIZONA HOURLY REGIONAL WEATHER ROUNDUP
NATIONAL WEATHER SERVICE PHOENIX AZ
600 PM MST THU MAY 28 2015

NOTE: FAIR INDICATES FEW OR NO CLOUDS BELOW 12,000 FEET WITH NO
SIGNIFICANT WEATHER AND/OR OBSTRUCTIONS TO VISIBILITY.

AZZ001>003-036-290200-
NORTHWEST ARIZONA

CITY           SKY/WX    TMP DP  RH WIND       PRES   REMARKS
BULLHEAD CITY  PTSUNNY   99  25   7 S10G16    29.77S
KINGMAN        MOSUNNY   87  22   9 SW14      29.96S
$$

AZZ004>008-015-016-018-290200-
NORTH CENTRAL ARIZONA

CITY           SKY/WX    TMP DP  RH WIND       PRES   REMARKS
GRAND CANYON   MOSUNNY   75  24  15 W7        30.15S
WILLIAMS       SUNNY     73  16  11 W9G17     30.23S
PRESCOTT       SUNNY     80  25  13 W13       30.07S
FLAGSTAFF      SUNNY     71  16  12 W9        30.19R
PAYSON         SUNNY     81  23  12 W13G20    30.09S
PAGE           MOSUNNY   82  36  19 N18       29.99R
$$

AZZ009>014-017-290200-
NORTHEAST ARIZONA

CITY           SKY/WX    TMP DP  RH WIND       PRES   REMARKS
WINSLOW        SUNNY     84  10   6 SW15      30.01S
SAINT JOHNS    SUNNY     80  18  10 NW7       30.04S
WINDOW ROCK    MOSUNNY   75  20  12 W9        30.12S
SHOW LOW       SUNNY     73  16  11 W14       30.14R
$$

AZZ023-290200-
GREATER PHOENIX AREA

CITY           SKY/WX    TMP DP  RH WIND       PRES   REMARKS
PHOENIX        MOSUNNY   97  29   9 W9        29.80F
BUCKEYE        SUNNY     95  27   8 SW10      29.82S
GLENDALE       MOSUNNY   99  28   8 SW9       29.82F
LUKE AFB       SUNNY     96  30   9 NW6       29.79F
DEER VALLEY    SUNNY     93  28  10 S3        29.82F
SCOTTSDALE     SUNNY     94  25   8 SW8       29.84F
MESA-FALCON    MOSUNNY   95  27   8 W12       29.82F
CHANDLER       MOSUNNY   95  32  11 W10       29.81F
$$

AZZ027-028-290200-
SOUTHWEST MARICOPA COUNTY AND PINAL COUNTY

CITY           SKY/WX    TMP DP  RH WIND       PRES   REMARKS
CASA GRANDE    SUNNY     95  34  11 NW5       29.82S
GILA BEND      MOSUNNY   97  24   7 W13       29.79F
$$

AZZ503-504-507>509-290200-
SOUTHEAST ARIZONA

CITY           SKY/WX    TMP DP  RH WIND       PRES   REMARKS
TUCSON         SUNNY     95  25   8 NW10G20   29.89S
DAVIS-MONTHAN  SUNNY     93  24   8 N12G18    29.88R
RYAN FIELD       N/A     95  30  10 NW13      29.88R
NOGALES        SUNNY     88  26  10 SW10      29.98S
SIERRA VISTA   SUNNY     85  13   6 NW12      30.03S
DOUGLAS        SUNNY     88  21   8 SW12      29.97F
SAFFORD        PTSUNNY   94  17   6 N16G23    29.87S
$$

AZZ020-021-025-026-031-290200-
SOUTHWEST ARIZONA

CITY           SKY/WX    TMP DP  RH WIND       PRES   REMARKS
YUMA           MOSUNNY   97  33  10 S10       29.78F
$$

CAZ031-033-041-043-047-048-061-290200-
SOUTHERN CALIFORNIA

CITY           SKY/WX    TMP DP  RH WIND       PRES   REMARKS
DOWNTOWN L.A.  SUNNY     68  56  65 VRB3      29.91S
L.A. AIRPORT   MOSUNNY   64  56  75 W16       29.93F
SAN DIEGO      MOSUNNY   66  54  65 W6        29.94S
BURBANK        SUNNY     76  54  46 S9        29.90S
ONTARIO        MOSUNNY   82  53  36 W14       29.89S
RIVERSIDE      SUNNY     81  54  39 W9G18     29.88S
PALM SPRINGS   SUNNY     98  37  12 E6        29.78F
EL CENTRO NAS  MOSUNNY   97  37  12 E6        29.76F
IMPERIAL       SUNNY     97  39  13 E3        29.74F
BLYTHE         SUNNY     98  29   8 S13       29.77F
NEEDLES        PTSUNNY  100  22   6 SW8       29.78F
$$

NVZ020-UTZ003-290200-
SOUTHERN NEVADA-UTAH

CITY           SKY/WX    TMP DP  RH WIND       PRES   REMARKS
LAS VEGAS      PTSUNNY   94  28   9 SE10      29.79F
SALT LAKE CITY MOSUNNY   70  40  33 N10       30.09S
$$

NMZ009-TXZ055-290200-
NEW MEXICO-WEST TEXAS

CITY           SKY/WX    TMP DP  RH WIND       PRES   REMARKS
ALBUQUERQUE    MOSUNNY   84  14   7 W17       29.97S
EL PASO        FAIR      91  14   6 W17       29.89S
$$


........................KEY........................
SKY/WX - SKY CONDITION/WEATHER
TMP    - TEMPERATURE IN FAHRENHEIT
DP     - DEW POINT IN FAHRENHEIT
RH     - RELATIVE HUMIDITY IN PERCENT
WIND   - DIRECTION AND SPEED IN MILES PER HOUR (MPH)
VRB    - VARIABLE WIND DIRECTION
PRES   - MEAN SEA LEVEL PRESSURE IN INCHES OF MERCURY
         F - FALLING PRESSURE   R - RISING PRESSURE
         S - STEADY PRESSURE
VSB    - VISIBILITY IN MILES
HX     - HEAT INDEX IN FAHRENHEIT
WCI    - WIND CHILL INDEX IN FAHRENHEIT
TC     - TEMPERATURE IN CELSIUS WHICH IS ALSO KNOWN AS
         TEMPERATURE IN CENTIGRADE
AFB    - AIR FORCE BASE
         LUKE AFB IS LUKE AIR FORCE BASE
         DAVIS-MONTHAN IS DAVIS-MONTHAN AIR FORCE BASE
NAS    - NAVAL AIR STATION
         EL CENTRO NAS IS EL CENTRO NAVAL AIR STATION
N/A    - NOT AVAILABLE




USA.gov is the U.S. government's official web portal to all federal, state and local government web resources and services.